#timestamp,LO_Frequency,Hit,StdDev 
1675242015.1,286047005.1,N
1675242016.0,286047005.1,N
1675242035.8,286047003.7,N
1675242055.7,286047000.2,N
1675242075.5,286046999.4,N
1675242095.3,286047000.8,N
1675242115.2,286047001.5,N
1675242135.0,286047001.8,N
1675242135.9,286047001.8,N
1675242155.8,286047002.1,N
1675242175.6,286047002.4,N
1675242195.4,286047000.9,N
1675242215.3,286047000.1,N
1675242235.1,286047002.3,N
1675242255.8,286047001.2,N
1675242275.7,286046997.2,N
1675242295.5,286046998.4,N
1675242315.4,286047002.6,N
1675242335.2,286046999.8,N
1675242355.0,286047001.6,N
1675242355.9,286047001.6,N
1675242375.8,286047000.5,N
1675242395.6,286047000.5,N
1675242415.4,286047001.0,N
1675242435.3,286047002.3,N
1675242455.1,286046998.4,N
1675242475.9,286047000.7,N
1675242495.7,286047000.1,N
1675242515.5,286047000.3,N
1675242535.4,286046998.1,N
1675242555.2,286046998.7,N
1675242575.0,286047002.8,N
1675242576.0,286047002.8,N
1675242595.8,286046998.1,N
1675242615.6,286047000.7,N
1675242635.5,286046998.7,N
1675242655.3,286046998.4,N
1675242675.1,286046998.0,N
1675242695.9,286046997.6,N
1675242715.7,286046993.4,Y
1675242735.6,286046994.0,P
1675242755.4,286046997.4,N
1675242775.2,286046994.9,N
1675242795.1,286046996.1,N
1675242796.0,286046996.1,N
1675242815.8,286046995.2,N
1675242835.6,286046998.5,N
1675242855.5,286047004.2,N
1675242875.3,286047002.6,N
1675242895.2,286047001.2,N
1675242915.9,286047002.4,N
1675242935.7,286047004.0,N
1675242955.6,286047004.4,N
1675242975.4,286047004.0,N
1675242995.3,286047002.2,N
1675243015.1,286047001.8,N
1675243016.0,286047001.8,N
1675243035.8,286047002.7,N
1675243055.7,286046999.9,N
1675243075.5,286047000.5,N
1675243095.3,286047006.0,N
1675243115.2,286047005.1,N
1675243135.0,286047007.5,N
1675243135.9,286047007.5,N
1675243155.8,286047008.4,N
1675243175.6,286047003.2,N
1675243195.4,286047005.7,N
1675243215.3,286047004.9,N
1675243235.1,286047006.6,N
1675243255.8,286047006.3,N
1675243275.7,286047006.3,N
1675243295.5,286047005.8,N
1675243315.4,286047001.7,N
1675243335.2,286047002.8,N
1675243355.0,286046999.9,N
1675243355.9,286046999.9,N
1675243375.8,286047001.3,N
1675243395.6,286047000.4,N
1675243415.5,286047001.1,N
1675243435.3,286047002.7,N
1675243455.1,286047001.0,N
1675243475.9,286047000.4,N
1675243495.7,286047000.3,N
1675243515.6,286047000.9,N
1675243535.4,286046999.0,N
1675243555.2,286046998.7,N
1675243575.1,286046999.6,N
1675243576.0,286046999.6,N
1675243595.8,286046998.3,N
1675243615.6,286046994.9,N
1675243635.5,286046997.3,N
1675243655.3,286046996.0,N
1675243675.2,286046997.8,N
1675243695.0,286046998.7,N
1675243695.9,286046998.7,N
1675243715.7,286046999.4,N
1675243735.6,286046996.7,N
1675243755.4,286046995.1,N
1675243775.3,286046995.8,N
1675243795.1,286046995.7,N
1675243796.0,286046995.7,N
1675243815.8,286047001.2,N
1675243835.7,286047004.0,N
1675243855.5,286047002.3,N
1675243875.4,286047000.2,N
1675243895.2,286047000.2,N
1675243915.0,286047002.1,N
1675243915.9,286047002.1,N
1675243935.8,286047003.9,N
1675243955.6,286046999.3,N
1675243975.5,286046998.6,N
1675243995.3,286047001.0,N
1675244015.1,286046998.1,N
1675244035.9,286046997.1,N
1675244055.7,286046996.9,N
1675244075.6,286046999.9,N
1675244095.4,286047003.0,N
1675244115.2,286047003.1,N
1675244135.1,286047003.4,N
1675244136.0,286047003.4,N
1675244155.8,286047006.0,N
1675244175.7,286047005.4,N
1675244195.5,286047005.4,N
1675244215.4,286047003.2,N
1675244235.2,286047003.4,N
1675244255.0,286046999.8,N
1675244255.9,286046999.8,N
1675244275.8,286047004.4,N
1675244295.6,286047004.1,N
1675244315.4,286047004.1,N
1675244335.3,286047002.4,N
1675244355.1,286047003.5,N
1675244375.9,286047003.8,N
1675244395.7,286047000.6,N
1675244415.5,286047002.7,N
1675244435.4,286047002.1,N
1675244455.2,286047001.5,N
1675244475.0,286047002.2,N
1675244476.0,286047002.2,N
1675244495.8,286047001.5,N
1675244515.6,286047002.1,N
1675244535.5,286047000.2,N
1675244555.3,286046998.3,N
1675244575.1,286046999.9,N
1675244595.9,286047004.0,N
1675244615.7,286047000.8,N
1675244635.6,286046996.5,N
1675244655.4,286046999.0,N
1675244675.2,286046995.1,N
1675244695.1,286046999.6,N
1675244696.0,286046999.6,N
1675244715.8,286046999.6,N
1675244735.7,286047000.2,N
1675244755.5,286047000.4,N
1675244775.3,286047000.3,N
1675244795.2,286046998.3,N
1675244815.9,286047001.1,N
1675244835.7,286046999.8,N
1675244855.6,286047001.5,N
1675244875.4,286046999.0,N
1675244895.3,286047000.5,N
1675244915.1,286047001.6,N
1675244916.0,286047001.6,N
1675244935.8,286047000.0,N
1675244955.7,286046999.7,N
1675244975.5,286047004.4,N
1675244995.3,286047000.9,N
1675245015.2,286046998.2,N
1675245035.0,286047000.3,N
1675245035.9,286047000.3,N
1675245055.8,286047000.6,N
1675245075.6,286047001.2,N
1675245095.4,286046996.8,N
1675245115.3,286046999.5,N
1675245135.1,286047002.8,N
1675245155.8,286047003.4,N
1675245175.7,286047002.6,N
1675245195.5,286047000.7,N
1675245215.4,286047000.7,N
1675245235.2,286046998.9,N
1675245255.0,286046999.6,N
1675245255.9,286046999.6,N
1675245275.8,286046997.7,N
1675245295.6,286046997.4,N
1675245315.5,286046998.3,N
1675245335.3,286046999.5,N
1675245355.1,286047006.0,Y
1675245375.9,286047004.5,P
1675245395.7,286047004.1,N
1675245415.5,286047005.8,P
1675245435.4,286047007.5,Y
1675245455.2,286047004.4,P
1675245475.1,286047003.1,P
1675245476.0,286047003.1,P
1675245495.8,286046999.7,N
1675245515.6,286046996.5,N
1675245535.5,286046993.8,N
1675245555.3,286046996.6,N
1675245575.2,286047000.1,N
1675245595.9,286047002.0,N
